Weather History for KHIE - November, 2012

Change the Weather History Date:

Saturday, November 17, 2012

  Actual Average Record
Temperature  
Mean Temperature 31 °F -  
Max Temperature 43 °F 39 °F 66 °F (2006)
Min Temperature 19 °F 21 °F 10 °F (1997)
Degree Days  
Heating Degree Days 34    
Moisture  
Dew Point 22 °F    
Average Humidity 77    
Maximum Humidity 93    
Minimum Humidity 40    
Precipitation  
Precipitation 0.00 in - - ()
Sea Level Pressure  
Sea Level Pressure 30.60 in    
Wind  
Wind Speed 0 mph (SW)    
Max Wind Speed 5 mph    
Max Gust Speed -    
Visibility 10 miles    
Events      
Averages and records for this station are not official NWS values.
T = Trace of Precipitation, MM = Missing Value Source: NWS Daily Summary

Daily Weather History Graph

Daily Weather History Graph

Search for Another Location

Airport or City:

Trip Planner

Search our weather history database for the weather conditions in past years. The results will help you decide how hot, cold, wet, or windy it might be!

Date:

Astronomy

Nov. 17, 2012 Rise Set
Actual Time 6:45 AM EST 4:16 PM EST
Civil Twilight 6:13 AM EST 4:48 PM EST
Nautical Twilight 5:38 AM EST 5:23 PM EST
Astronomical Twilight 5:04 AM EST 5:57 PM EST
Moon 10:27 AM EST (11/17) 8:23 PM EST (11/17)
Length of Visible Light 10h 34m
Length of Day
9h 31m
Waxing Crescent, 20% of the Moon is Illuminated
Nov 17
Waxing Crescent
Nov 20
First Quarter
Nov 28
Full
Dec 6
Last Quarter
Dec 13
New

Hourly Weather History & Observations

Time (EST) Temp. Windchill Dew Point Humidity Pressure Visibility Wind Dir Wind Speed Gust Speed Precip Events Conditions
12:08 AM 28.4 °F - 26.6 °F 93% 30.44 in 10.0 mi Calm Calm - N/A   Overcast
12:52 AM 28.0 °F - 24.1 °F 85% 30.48 in 10.0 mi Calm Calm - N/A   Mostly Cloudy
1:13 AM 28.4 °F - 24.8 °F 86% 30.45 in 10.0 mi Calm Calm - N/A   Overcast
1:37 AM 28.4 °F - 24.8 °F 86% 30.46 in 10.0 mi Calm Calm - N/A   Overcast
1:52 AM 28.0 °F - 25.0 °F 88% 30.50 in 10.0 mi Calm Calm - N/A   Overcast
2:52 AM 24.1 °F - 19.9 °F 84% 30.52 in 10.0 mi Calm Calm - N/A   Partly Cloudy
3:43 AM 24.8 °F - 21.2 °F 86% 30.49 in 10.0 mi Calm Calm - N/A   Overcast
3:52 AM 25.0 °F - 21.9 °F 88% 30.54 in 10.0 mi Calm Calm - N/A   Overcast
4:52 AM 27.0 °F - 24.1 °F 89% 30.57 in 10.0 mi Calm Calm - N/A   Overcast
5:52 AM 27.0 °F - 24.1 °F 89% 30.58 in 10.0 mi Calm Calm - N/A   Overcast
6:52 AM 25.0 °F - 21.0 °F 85% 30.61 in 10.0 mi Calm Calm - N/A   Scattered Clouds
7:02 AM 24.8 °F - 21.2 °F 86% 30.56 in 10.0 mi Calm Calm - N/A   Mostly Cloudy
7:52 AM 25.0 °F - 21.9 °F 88% 30.64 in 10.0 mi Calm Calm - N/A   Scattered Clouds
8:52 AM 28.0 °F - 25.0 °F 88% 30.65 in 10.0 mi Calm Calm - N/A   Clear
9:52 AM 36.0 °F - 26.1 °F 67% 30.65 in 10.0 mi Calm Calm - N/A   Clear
10:52 AM 37.9 °F - 25.0 °F 60% 30.64 in 10.0 mi Calm Calm - N/A   Scattered Clouds
11:52 AM 39.0 °F 35.7 °F 21.0 °F 49% 30.63 in 10.0 mi SSE 4.6 mph - N/A   Clear
12:52 PM 42.1 °F - 21.0 °F 43% 30.61 in 10.0 mi Calm Calm - N/A   Clear
1:52 PM 43.0 °F 41.3 °F 19.9 °F 40% 30.61 in 10.0 mi Variable 3.5 mph - N/A   Clear
2:52 PM 42.1 °F 40.2 °F 19.9 °F 41% 30.61 in 10.0 mi WNW 3.5 mph - N/A   Clear
3:52 PM 37.0 °F - 21.9 °F 54% 30.63 in 10.0 mi Calm Calm - N/A   Clear
4:52 PM 28.9 °F - 21.9 °F 75% 30.65 in 10.0 mi Calm Calm - N/A   Clear
5:52 PM 27.0 °F - 21.0 °F 78% 30.67 in 10.0 mi Calm Calm - N/A   Clear
6:52 PM 25.0 °F - 19.0 °F 78% 30.69 in 10.0 mi Calm Calm - N/A   Clear
7:52 PM 23.0 °F - 18.0 °F 81% 30.69 in 10.0 mi Calm Calm - N/A   Clear
8:52 PM 23.0 °F - 18.0 °F 81% 30.69 in 10.0 mi Calm Calm - N/A   Clear
9:52 PM 21.0 °F - 17.1 °F 85% 30.69 in 10.0 mi Calm Calm - N/A   Clear
10:52 PM 19.9 °F - 16.0 °F 85% 30.71 in 10.0 mi Calm Calm - N/A   Clear
11:52 PM 19.0 °F - 15.1 °F 85% 30.71 in 10.0 mi Calm Calm - N/A   Clear